Location: *
(51.2167°N, 10.0667°E)
Time: 01:35:02
(UTC+00:00)

NOSS 3-1 (A) - Pass Details

Date: 12 December 2019
Orbit: 766 x 1446 km, 63.4° (Epoch: 19 January)

Event Time Altitude Azimuth Distance (km) Brightness Sun altitude
Rises 18:23:39 0° 314° (NW) 3,849 7.2 -28.7°
Reaches altitude 10° 18:26:08 10° 316° (NW) 2,984 6.5 -29.0°
Maximum altitude 18:33:25 80° 44° (NE) 1,272 3.8 -30.2°
Enters shadow 18:34:15 72° 101° (E) 1,324 3.8 -30.3°
